FW3613 Weather Reports


Display with metric or nautical units.
time (UTC)temp
F
wind
direction
speed
MPH
gust
MPH
rain 1hr
in
rain 24hr
in
rain mn
in
humidity
%
barometer
mb
20260505201027 73 300 4.0 15.0 0.00 0.00 0.00 31 1008.8
20260505200527 73 300 2.0 9.0 0.00 0.00 0.00 32 1008.9
20260505200025 72 307 2.0 10.0 0.00 0.00 0.00 32 1009.0
20260505195528 72 311 4.0 10.0 0.00 0.00 0.00 32 1009.1
20260505195024 72 294 5.0 10.0 0.00 0.00 0.00 32 1009.1
20260505194524 72 314 4.0 11.0 0.00 0.00 0.00 32 1009.1
20260505194023 72 298 4.0 11.0 0.00 0.00 0.00 32 1009.1
20260505193525 72 277 5.0 8.0 0.00 0.00 0.00 32 1009.2
20260505193022 72 291 3.0 12.0 0.00 0.00 0.00 33 1009.3
20260505192521 71 296 4.0 12.0 0.00 0.00 0.00 33 1009.3
20260505192021 71 287 4.0 10.0 0.00 0.00 0.00 33 1009.4
20260505191519 71 306 2.0 11.0 0.00 0.00 0.00 34 1009.4
20260505191017 71 293 2.0 11.0 0.00 0.00 0.00 34 1009.4
20260505190517 70 297 2.0 8.0 0.00 0.00 0.00 34 1009.6
20260505190034 70 301 2.0 10.0 0.00 0.00 0.00 35 1009.5
20260505185517 70 291 2.0 11.0 0.00 0.00 0.00 34 1009.7
20260505185015 70 299 2.0 11.0 0.00 0.00 0.00 34 1009.6
20260505184523 70 288 2.0 8.0 0.00 0.00 0.00 34 1009.7
20260505184013 69 290 3.0 9.0 0.00 0.00 0.00 34 1009.8
20260505183512 69 295 3.0 9.0 0.00 0.00 0.00 34 1009.8
20260505183015 69 297 3.0 9.0 0.00 0.00 0.00 34 1009.8
20260505182510 68 307 3.0 8.0 0.00 0.00 0.00 35 1009.9
20260505182008 68 297 2.0 6.0 0.00 0.00 0.00 35 1010.0
20260505181508 68 288 2.0 7.0 0.00 0.00 0.00 35 1010.0
20260505181008 68 294 3.0 7.0 0.00 0.00 0.00 35 1010.1
20260505180507 67 285 2.0 9.0 0.00 0.00 0.00 36 1010.1
20260505180008 67 276 3.0 9.0 0.00 0.00 0.00 36 1010.2
20260505175505 67 277 2.0 7.0 0.00 0.00 0.00 36 1010.1
20260505175004 67 314 1.0 6.0 0.00 0.00 0.00 36 1010.1
20260505174504 66 287 1.0 5.0 0.00 0.00 0.00 36 1010.1
20260505174003 66 305 1.0 7.0 0.00 0.00 0.00 36 1010.1
20260505173503 66 305 2.0 7.0 0.00 0.00 0.00 36 1010.1
20260505173002 67 257 0.0 5.0 0.00 0.00 0.00 37 1010.1
20260505172501 66 290 2.0 6.0 0.00 0.00 0.00 37 1010.1
20260505172100 66 294 2.0 6.0 0.00 0.00 0.00 37 1010.1
20260505171559 65 330 2.0 8.0 0.00 0.00 0.00 38 1010.1
20260505171059 65 285 4.0 8.0 0.00 0.00 0.00 37 1010.1
20260505170558 65 117 0.0 3.0 0.00 0.00 0.00 39 1010.0
20260505170057 65 321 1.0 3.0 0.00 0.00 0.00 38 1010.0
20260505165555 64 109 0.0 7.0 0.00 0.00 0.00 39 1010.0
20260505165055 64 239 1.0 5.0 0.00 0.00 0.00 39 1010.0
20260505164554 64 117 2.0 5.0 0.00 0.00 0.00 40 1010.1
20260505164053 64 303 1.0 5.0 0.00 0.00 0.00 41 1010.0
20260505163553 64 109 0.0 4.0 0.00 0.00 0.00 40 1010.0
20260505163052 64 117 1.0 5.0 0.00 0.00 0.00 40 1010.0
20260505162553 64 105 1.0 6.0 0.00 0.00 0.00 41 1010.0
20260505162050 64 130 2.0 7.0 0.00 0.00 0.00 42 1009.9
20260505161549 63 1 2.0 5.0 0.00 0.00 0.00 41 1009.9
20260505161049 63 110 2.0 4.0 0.00 0.00 0.00 41 1009.9
20260505160548 63 120 1.0 5.0 0.00 0.00 0.00 42 1009.8
20260505153048 60 297 0.0 2.0 0.00 0.00 0.00 51 1009.7
20260505152544 60 124 0.0 2.0 0.00 0.00 0.00 55 1009.7
20260505152044 59 117 0.0 1.0 0.00 0.00 0.00 56 1009.7
20260505151544 58 339 0.0 0.0 0.00 0.00 0.00 62 1009.8
20260505151048 57 122 0.0 0.0 0.00 0.00 0.00 65 1009.8
20260505150544 57 122 0.0 1.0 0.00 0.00 0.00 66 1009.8
20260505140539 52 122 0.0 0.0 0.00 0.00 0.00 71 1009.3
20260505125026 50 98 0.0 0.0 0.00 0.00 0.00 73 1008.1
20260505124526 50 98 0.0 0.0 0.00 0.00 0.00 73 1008.0
20260505124025 51 98 0.0 0.0 0.00 0.00 0.00 71 1007.9
20260505123524 50 98 0.0 1.0 0.00 0.00 0.00 70 1007.9
20260505123024 50 98 0.0 1.0 0.00 0.00 0.00 71 1007.8
20260505122523 50 98 0.0 0.0 0.00 0.00 0.00 72 1007.7
20260505122022 49 97 0.0 0.0 0.00 0.00 0.00 74 1007.6
20260505121521 49 98 0.0 0.0 0.00 0.00 0.00 75 1007.5
20260505121021 49 98 0.0 0.0 0.00 0.00 0.00 74 1007.3
20260505120520 49 97 0.0 0.0 0.00 0.00 0.00 74 1007.2
20260505120033 49 98 0.0 1.0 0.00 0.00 0.00 74 1007.2
20260505115518 49 97 0.0 1.0 0.00 0.00 0.00 74 1007.1
20260505115017 50 98 0.0 0.0 0.00 0.00 0.00 74 1007.1
20260505114517 50 98 0.0 1.0 0.00 0.00 0.00 73 1007.0
20260505114016 50 98 0.0 1.0 0.00 0.00 0.00 73 1007.0
20260505113514 50 98 0.0 0.0 0.00 0.00 0.00 74 1006.9
20260505113014 50 97 0.0 0.0 0.00 0.00 0.00 74 1006.8
20260505112512 50 97 0.0 0.0 0.00 0.00 0.00 73 1006.7
20260505112011 50 98 0.0 1.0 0.00 0.00 0.00 72 1006.6
20260505111522 50 98 0.0 1.0 0.00 0.00 0.00 72 1006.5
20260505111009 50 98 0.0 1.0 0.00 0.00 0.00 71 1006.4
20260505110510 51 97 0.0 0.0 0.00 0.00 0.00 72 1006.3
20260505102103 51 98 0.0 0.0 0.00 0.00 0.00 70 1005.8
20260505101600 52 98 0.0 0.0 0.00 0.00 0.00 70 1005.8
20260505101059 52 98 0.0 1.0 0.00 0.00 0.00 69 1005.7
20260505100557 52 98 0.0 1.0 0.00 0.00 0.00 68 1005.6
20260505100058 52 123 0.0 0.0 0.00 0.00 0.00 68 1005.4
20260505095557 52 123 0.0 0.0 0.00 0.00 0.00 68 1005.4
20260505095053 53 123 0.0 0.0 0.00 0.00 0.00 67 1005.3
20260505094554 53 123 0.0 0.0 0.00 0.00 0.00 66 1005.2
20260505094051 54 123 0.0 0.0 0.00 0.00 0.00 66 1005.1
20260505093550 54 123 0.0 1.0 0.00 0.00 0.00 64 1004.9
20260505093048 54 123 0.0 1.0 0.00 0.00 0.00 63 1004.9
20260505092548 55 123 0.0 0.0 0.00 0.00 0.00 60 1004.9
20260505092048 55 123 0.0 2.0 0.00 0.00 0.00 60 1004.9
20260505091608 55 123 0.0 2.0 0.00 0.00 0.00 61 1004.8
20260505091047 55 109 0.0 1.0 0.00 0.00 0.00 61 1004.8
20260505090547 55 109 0.0 1.0 0.00 0.00 0.00 61 1004.9
20260505090059 55 108 0.0 1.0 0.00 0.00 0.00 61 1004.9
20260505085544 55 103 0.0 2.0 0.00 0.00 0.00 60 1004.8
20260505085044 55 103 0.0 2.0 0.00 0.00 0.00 60 1004.6
20260505084600 55 115 0.0 2.0 0.00 0.00 0.00 61 1004.5
20260505084043 55 124 0.0 1.0 0.00 0.00 0.00 62 1004.5
20260505083540 55 127 0.0 0.0 0.00 0.00 0.00 61 1004.3
20260505083058 55 114 0.0 1.0 0.00 0.00 0.00 61 1004.3
20260505082539 55 115 0.0 1.0 0.00 0.00 0.00 61 1004.1
20260505082038 55 115 0.0 1.0 0.00 0.00 0.00 60 1004.1
20260505081552 56 115 0.0 2.0 0.00 0.00 0.00 61 1004.0
20260505081036 56 133 0.0 2.0 0.00 0.00 0.00 60 1004.0
20260505080534 56 125 0.0 1.0 0.00 0.00 0.00 59 1003.9
20260505080047 56 122 0.0 1.0 0.00 0.00 0.00 58 1004.0
20260505075534 56 122 0.0 1.0 0.00 0.00 0.00 58 1004.0
20260505075033 56 122 0.0 1.0 0.00 0.00 0.00 58 1003.9
20260505074532 57 123 0.0 2.0 0.00 0.00 0.00 58 1003.9
20260505074030 57 121 0.0 2.0 0.00 0.00 0.00 58 1003.9
20260505073531 57 117 0.0 1.0 0.00 0.00 0.00 55 1003.7
20260505073040 57 124 0.0 1.0 0.00 0.00 0.00 55 1003.7
20260505072527 58 124 0.0 1.0 0.00 0.00 0.00 55 1003.8
20260505072027 58 124 0.0 1.0 0.00 0.00 0.00 54 1003.6
20260505071539 59 124 0.0 1.0 0.00 0.00 0.00 53 1003.7
20260505071023 59 124 0.0 1.0 0.00 0.00 0.00 50 1003.5
20260505070525 59 127 0.0 1.0 0.00 0.00 0.00 50 1003.5
20260505070027 59 127 0.0 1.0 0.00 0.00 0.00 50 1003.5
20260505065521 59 127 0.0 2.0 0.00 0.00 0.00 50 1003.4
20260505065022 59 125 0.0 2.0 0.00 0.00 0.00 51 1003.4
20260505064520 59 297 0.0 1.0 0.00 0.00 0.00 51 1003.3
20260505064022 59 97 0.0 0.0 0.00 0.00 0.00 51 1003.2
20260505063518 59 98 0.0 2.0 0.00 0.00 0.00 52 1003.3
20260505063017 60 97 0.0 2.0 0.00 0.00 0.00 52 1003.2
20260505062517 60 117 0.0 2.0 0.00 0.00 0.00 50 1003.2
20260505062013 61 133 0.0 2.0 0.00 0.00 0.00 48 1003.1
20260505061524 61 132 0.0 2.0 0.00 0.00 0.00 47 1003.1
20260505061012 61 132 0.0 2.0 0.00 0.00 0.00 47 1003.1
20260505060510 62 127 0.0 2.0 0.00 0.00 0.00 45 1003.2
20260505060008 63 131 0.0 2.0 0.00 0.00 0.00 45 1003.0
20260505055607 63 127 0.0 1.0 0.00 0.00 0.00 44 1003.2
20260505055007 63 127 0.0 1.0 0.00 0.00 0.00 42 1003.1
20260505054507 63 127 0.0 1.0 0.00 0.00 0.00 43 1003.1
20260505054010 64 127 0.0 1.0 0.00 0.00 0.00 42 1003.0
20260505053506 64 127 0.0 1.0 0.00 0.00 0.00 42 1003.0
20260505053006 65 127 0.0 1.0 0.00 0.00 0.00 41 1002.9
20260505052506 65 127 0.0 3.0 0.00 0.00 0.00 41 1002.9
20260505052005 65 112 0.0 3.0 0.00 0.00 0.00 39 1002.9
20260505051506 65 77 0.0 1.0 0.00 0.00 0.00 40 1002.8
20260505051006 66 78 0.0 1.0 0.00 0.00 0.00 39 1002.8
20260505050506 66 75 0.0 1.0 0.00 0.00 0.00 38 1002.8
20260505041507 68 298 0.0 1.0 0.00 0.00 0.00 37 1002.7
20260505041003 69 300 0.0 2.0 0.00 0.00 0.00 35 1002.7
20260505040503 69 300 0.0 4.0 0.00 0.00 0.00 34 1002.6
20260505040005 70 298 1.0 5.0 0.00 0.00 0.00 33 1002.6
20260505035503 70 303 2.0 5.0 0.00 0.00 0.00 33 1002.5
20260505035003 70 297 3.0 5.0 0.00 0.00 0.00 33 1002.5
20260505034503 70 304 3.0 5.0 0.00 0.00 0.00 33 1002.5
20260505034003 71 304 3.0 4.0 0.00 0.00 0.00 32 1002.5
20260505033503 71 304 2.0 4.0 0.00 0.00 0.00 32 1002.4
20260505033003 72 299 2.0 4.0 0.00 0.00 0.00 31 1002.4
20260505032503 73 293 2.0 4.0 0.00 0.00 0.00 30 1002.4
20260505032003 73 297 1.0 4.0 0.00 0.00 0.00 28 1002.4
20260505031502 73 291 2.0 3.0 0.00 0.00 0.00 28 1002.3
20260505031002 74 291 1.0 2.0 0.00 0.00 0.00 29 1002.2
20260505030501 74 294 0.0 2.0 0.00 0.00 0.00 29 1002.2
20260505030123 75 294 0.0 4.0 0.00 0.00 0.00 28 1002.2
20260505025600 75 291 1.0 4.0 0.00 0.00 0.00 28 1002.2
20260505025105 75 297 1.0 4.0 0.00 0.00 0.00 27 1002.2
20260505024601 76 291 1.0 7.0 0.00 0.00 0.00 26 1002.2
20260505024100 76 308 1.0 7.0 0.00 0.00 0.00 26 1002.2
20260505023600 76 308 3.0 7.0 0.00 0.00 0.00 26 1002.0
20260505023100 77 304 2.0 9.0 0.00 0.00 0.00 26 1002.0
20260505022600 77 307 4.0 9.0 0.00 0.00 0.00 26 1002.0
20260505022100 77 307 2.0 8.0 0.00 0.00 0.00 26 1002.0
20260505021559 78 287 2.0 6.0 0.00 0.00 0.00 26 1002.0
20260505021058 78 317 2.0 5.0 0.00 0.00 0.00 26 1002.0
20260505020558 78 289 2.0 7.0 0.00 0.00 0.00 26 1002.0
20260505015558 79 283 1.0 8.0 0.00 0.00 0.00 25 1002.0
20260505015058 79 315 4.0 7.0 0.00 0.00 0.00 25 1002.0
20260505014610 79 301 3.0 8.0 0.00 0.00 0.00 23 1002.0
20260505014102 80 282 3.0 11.0 0.00 0.00 0.00 22 1002.0
20260505013557 80 295 5.0 11.0 0.00 0.00 0.00 21 1002.0
20260505013058 80 293 4.0 10.0 0.00 0.00 0.00 20 1002.0
20260505012557 80 294 4.0 10.0 0.00 0.00 0.00 20 1002.0
20260505012056 81 293 3.0 12.0 0.00 0.00 0.00 21 1002.1
20260505011558 80 309 3.0 12.0 0.00 0.00 0.00 21 1002.1
20260505011058 81 294 5.0 11.0 0.00 0.00 0.00 20 1002.1
20260505010555 81 296 4.0 11.0 0.00 0.00 0.00 19 1002.2
20260505005556 81 285 2.0 10.0 0.00 0.00 0.00 19 1002.3
20260505005053 81 290 4.0 9.0 0.00 0.00 0.00 19 1002.3
20260505004554 81 314 2.0 12.0 0.00 0.00 0.00 19 1002.4
20260505004051 82 294 3.0 12.0 0.00 0.00 0.00 18 1002.4
20260505003552 82 313 3.0 10.0 0.00 0.00 0.00 18 1002.6
20260505003057 81 330 5.0 10.0 0.00 0.00 0.00 19 1002.6
20260505002550 81 314 3.0 11.0 0.00 0.00 0.00 19 1002.6
20260505002049 82 288 5.0 11.0 0.00 0.00 0.00 19 1002.6
20260505001549 82 294 4.0 11.0 0.00 0.00 0.00 20 1002.6
20260505001048 82 294 4.0 10.0 0.00 0.00 0.00 20 1002.7
20260505000548 82 291 4.0 15.0 0.00 0.00 0.00 20 1002.6
20260505000053 82 316 6.0 15.0 0.00 0.00 0.00 20 1002.7
20260504235549 82 305 3.0 10.0 0.00 0.00 0.00 20 1002.7
20260504235047 82 323 3.0 10.0 0.00 0.00 0.00 21 1002.8
20260504234546 82 308 3.0 9.0 0.00 0.00 0.00 21 1002.8
20260504234045 82 285 3.0 13.0 0.00 0.00 0.00 22 1002.9
20260504233545 82 297 5.0 11.0 0.00 0.00 0.00 22 1002.8
20260504233046 82 296 3.0 12.0 0.00 0.00 0.00 23 1002.9
20260504232544 82 295 6.0 13.0 0.00 0.00 0.00 24 1003.0
20260504232042 82 294 5.0 13.0 0.00 0.00 0.00 23 1003.0
20260504231542 83 283 3.0 7.0 0.00 0.00 0.00 24 1003.0
20260504231041 82 304 1.0 10.0 0.00 0.00 0.00 24 1003.0
20260504230541 82 301 5.0 12.0 0.00 0.00 0.00 24 1003.2
20260504230040 82 279 5.0 12.0 0.00 0.00 0.00 24 1003.2
20260504225540 82 293 2.0 14.0 0.00 0.00 0.00 25 1003.3
20260504225039 82 280 3.0 14.0 0.00 0.00 0.00 24 1003.3
20260504224538 82 307 3.0 8.0 0.00 0.00 0.00 24 1003.4
20260504224037 82 301 1.0 8.0 0.00 0.00 0.00 24 1003.5
20260504223536 82 266 2.0 9.0 0.00 0.00 0.00 25 1003.6
20260504223054 82 287 3.0 9.0 0.00 0.00 0.00 25 1003.6
20260504222535 81 305 2.0 9.0 0.00 0.00 0.00 26 1003.7
20260504222033 81 303 2.0 11.0 0.00 0.00 0.00 26 1003.9
20260504221535 81 302 4.0 11.0 0.00 0.00 0.00 25 1003.9
20260504221032 81 291 3.0 11.0 0.00 0.00 0.00 25 1004.0
20260504220532 81 303 2.0 12.0 0.00 0.00 0.00 26 1004.1
20260504220032 81 279 3.0 12.0 0.00 0.00 0.00 25 1004.1
20260504215529 81 296 2.0 8.0 0.00 0.00 0.00 25 1004.2
20260504215031 80 291 3.0 11.0 0.00 0.00 0.00 26 1004.2
20260504214526 80 288 3.0 11.0 0.00 0.00 0.00 27 1004.4
20260504214029 80 295 1.0 10.0 0.00 0.00 0.00 28 1004.4
20260504213526 80 294 4.0 10.0 0.00 0.00 0.00 28 1004.5
20260504213028 80 106 2.0 8.0 0.00 0.00 0.00 28 1004.7
20260504212523 79 265 2.0 9.0 0.00 0.00 0.00 29 1004.8
20260504212024 79 300 5.0 11.0 0.00 0.00 0.00 29 1004.8
20260504211533 79 305 5.0 10.0 0.00 0.00 0.00 28 1004.9
20260504211020 79 301 3.0 7.0 0.00 0.00 0.00 29 1005.0
20260504210519 79 283 1.0 10.0 0.00 0.00 0.00 29 1005.1
20260504210018 78 274 4.0 10.0 0.00 0.00 0.00 31 1005.1
20260504205518 78 283 2.0 6.0 0.00 0.00 0.00 31 1005.2
20260504205015 78 304 2.0 9.0 0.00 0.00 0.00 31 1005.3
20260504204518 78 288 2.0 8.0 0.00 0.00 0.00 32 1005.4
20260504204014 78 283 1.0 8.0 0.00 0.00 0.00 30 1005.4
20260504203512 77 290 3.0 7.0 0.00 0.00 0.00 30 1005.5
20260504203013 77 298 3.0 9.0 0.00 0.00 0.00 30 1005.6
20260504202512 77 293 4.0 9.0 0.00 0.00 0.00 31 1005.7
20260504202009 77 304 1.0 8.0 0.00 0.00 0.00 31 1005.7
20260504201508 76 350 3.0 8.0 0.00 0.00 0.00 31 1005.7